Hourly Weather Roundup
Issued by NWS Central Illinois

Home | Current Version | Previous Version | Text Only | Print | Product List | Glossary On
Versions: 1 2 3 4 5 6 7 8 9 10 11 12 13 14 15 16 17 18 19 20 21 22 23 24 25 26 27 28 29 30 31 32 33 34 35 36 37 38 39 40 41 42 43 44 45 46 47 48 49 50
000
NZUS43 KILX 210810
HWRILX

AREA WEATHER ROUNDUP
NATIONAL WEATHER SERVICE, LINCOLN IL
300 AM CDT THU AUG 21 2014


CITY           SKY/WX    TMP DP  RH WIND       PRES   REMARKS
BLOOMINGTON    PTCLDY    69  67  93 S6        29.97F
CHAMPAIGN      LGT RAIN  74  69  85 SW8       29.96F
DECATUR        MOCLDY    73  68  84 SW8       29.95F
FLORA          CLOUDY    71  69  93 S9        29.99S
GALESBURG      PTCLDY    72  71  96 S7        29.92F
JACKSONVILLE   CLEAR     75  72  88 S8        29.95S
LACON          MOCLDY    71  68  92 SE3       29.93F
LAWRENCEVILLE  CLOUDY    71  68  90 SE9       29.98F
LITCHFIELD     MOCLDY    72  71  96 S8        29.97S
$$


CITY           SKY/WX    TMP DP  RH WIND       PRES   REMARKS
LINCOLN        MOCLDY    72  70  93 CALM      29.92S
MACOMB         CLOUDY    72  71  96 S3        29.95S
MATTOON        CLOUDY    73  66  78 S5        29.96F
MT CARMEL AP   CLOUDY    73  66  78 S9        29.99F
OLNEY-NOBLE AP CLOUDY    70  68  94 SE3       29.99F
PARIS          CLOUDY    72  71  97 CALM      29.98F
PEORIA         MOCLDY    73  69  87 S3        29.94S
PONTIAC        MOCLDY    72  70  94 CALM      29.95F
RANTOUL        CLOUDY    73  68  84 CALM      29.97S
ROBINSON       CLOUDY    70  67  91 SW3       30.00S
SPRINGFIELD    CLOUDY    76  70  82 S9        29.95S
TAYLORVILLE    PTCLDY    70  68  94 S8        29.96S
$$

...REGIONAL REPORTS...


CITY           SKY/WX    TMP DP  RH WIND       PRES   REMARKS
CHICAGO O`HARE CLOUDY    72  65  78 S10       29.95S
KANKAKEE       CLOUDY    70  68  95 CALM      29.96F
MOLINE         PTCLDY    70  68  93 E7        29.90F
MOUNT VERNON   CLOUDY    72  66  83 CALM      30.01S
PITTSFIELD     CLEAR     74  70  89 S6        29.96S
QUINCY         CLEAR     72  69  90 S9        29.93S
ROCKFORD       LGT RAIN  71  67  87 CALM      29.95F
$$


CITY           SKY/WX    TMP DP  RH WIND       PRES   REMARKS
BURLINGTON     LGT RAIN  74  73  97 S8        29.91S
CEDAR RAPIDS   CLOUDY    69  69 100 SE6       29.87F FOG
DES MOINES     PTCLDY    77  72  84 S7        29.82F
KIRKSVILLE     CLEAR     76  68  76 S8        29.92F
OTTUMWA        MOCLDY    76  72  87 S7        29.87F
ST LOUIS       PTCLDY    78  73  84 SW6       29.97S HX  81
$$


CITY           SKY/WX    TMP DP  RH WIND       PRES   REMARKS
TERRE HAUTE    CLOUDY    72  68  87 S6        29.98F
EVANSVILLE     LGT RAIN  75  67  76 NW8       30.06R
INDIANAPOLIS   CLOUDY    72  68  87 SE3       29.99F
LAFAYETTE      CLOUDY    69  68  96 E5        29.97F
MADISON        CLOUDY    67  65  93 E3        29.92F
MILWAUKEE      PTCLDY    66  62  87 NE5       29.94F
$$




USA.gov is the U.S. government's official web portal to all federal, state and local government web resources and services.